一网星座-0414星 (ONEWEB-0414 )

导读 | 星芒AI

ONEWEB-0414 是 OneWeb 卫星通信公司发射的低轨通信卫星之一,属于其全球宽带互联网星座计划的一部分。该卫星运行在约 1200 公里的近地轨道,旨在为全球用户提供高速、低延迟的互联网服务,特别是在航空、航海和偏远地区。ONEWEB-0414 采用先进通信技术,支持多频段传输,增强网络覆盖与连接能力,助力实现全球数字包容。

基本信息
目录编号:
50491
目录名称:
ONEWEB-0414
国际标识:
2021-132Y
轨道中心:
EARTH
卫星名称:
一网星座-0414星
卫星全名:
一网星座-0414星 (ONEWEB-0414 )
卫星状态:
在轨 (已飞行1449 天)
发射日期:
2021-12-27 UTC
国别 :
英国 (GB)
星等 :
--
轨道信息
数据来源 国际轨道数据 AOE轨道数据
星历时间 2025-12-15T02:58:21+0800
1天前
查看轨道信息
2025-12-10T01:00:00+0800
6天前
查看轨道信息
半长轴 7567.881km 7567.885km
偏心率 0.000196 0.0001525
轨道倾角 87.918° 87.919°
近地点辐角 98.105° 105.670°
升交点赤经 12.055° 13.065°
平近点角 262.031° 261.733°
近地点 1188.262km 1188.595km
远地点 1191.23km 1190.905km
周期 109.200分钟 109.200分钟
每日圈数 13.18686 13.186849
详细信息
平衡模式:
三轴稳定
覆盖范围:
全球
运营商:
一网卫星公司
运营商所在国:
英国
制造商(研发单位):
一网卫星公司
制造商所在国:
英国
使用方式:
暂无
卫星简介
OneWeb卫星网络由648颗重约125公斤的微型卫星组成,运行在1200公里的轨道上。 每颗卫星都能够提供至少每秒8千兆位的吞吐量,以使用其高吞吐量的Ku频段有效载荷为家庭和移动平台提供互联网接入。该卫星仍在工作。
2D轨道图
3D轨道图
轨道高度分析图
轨道倾角分析图
轨道综合分析图
查看轨道综合分析图